Weather History for KDET - October, 2013

Change the Weather History Date:

Thursday, October 17, 2013

  Actual Average Record
Temperature  
Mean Temperature 52 °F -  
Max Temperature 54 °F 58 °F 84 °F (1963)
Min Temperature 48 °F 44 °F 31 °F (1972)
Degree Days  
Heating Degree Days 13    
Growing Degree Days 2 (Base 50)    
Moisture  
Dew Point 46 °F    
Average Humidity 82    
Maximum Humidity 93    
Minimum Humidity 72    
Precipitation  
Precipitation 0.02 in - - ()
Sea Level Pressure  
Sea Level Pressure 29.83 in    
Wind  
Wind Speed 7 mph (WSW)    
Max Wind Speed 15 mph    
Max Gust Speed 24 mph    
Visibility 9 miles    
Events Rain    
Averages and records for this station are not official NWS values.
T = Trace of Precipitation, MM = Missing Value Source: NWS Daily Summary

Daily Weather History Graph

Daily Weather History Graph

Search for Another Location

Airport or City:

Trip Planner

Search our weather history database for the weather conditions in past years. The results will help you decide how hot, cold, wet, or windy it might be!

Date:

Astronomy

Oct. 17, 2013 Rise Set
Actual Time 7:47 AM EDT 6:46 PM EDT
Civil Twilight 7:19 AM EDT 7:14 PM EDT
Nautical Twilight 6:46 AM EDT 7:47 PM EDT
Astronomical Twilight 6:13 AM EDT 8:19 PM EDT
Moon 6:00 PM EDT (10/17) 6:17 AM EDT (10/17)
Length of Visible Light 11h 55m
Length of Day
10h 58m
Waxing Gibbous, 98% of the Moon is Illuminated
Oct 17
Waxing Gibbous
Oct 18
Full
Oct 26
Last Quarter
Nov 3
New
Nov 10
First Quarter

Hourly Weather History & Observations

Time (EDT) Temp. Dew Point Humidity Pressure Visibility Wind Dir Wind Speed Gust Speed Precip Events Conditions
12:35 AM 53.6 °F 44.6 °F 72% 29.91 in 10.0 mi West 6.9 mph - N/A   Overcast
12:53 AM 53.1 °F 45.0 °F 74% 29.91 in 10.0 mi West 6.9 mph - N/A   Overcast
1:53 AM 53.1 °F 45.0 °F 74% 29.91 in 10.0 mi West 5.8 mph - N/A   Overcast
2:53 AM 53.1 °F 45.0 °F 74% 29.91 in 10.0 mi WSW 5.8 mph - N/A   Overcast
3:53 AM 53.1 °F 45.0 °F 74% 29.89 in 10.0 mi West 3.5 mph - N/A   Overcast
4:53 AM 52.0 °F 45.0 °F 77% 29.89 in 10.0 mi WSW 6.9 mph - N/A   Overcast
5:53 AM 51.1 °F 45.0 °F 80% 29.89 in 10.0 mi WSW 6.9 mph - N/A   Mostly Cloudy
6:53 AM 50.0 °F 45.0 °F 83% 29.89 in 10.0 mi WSW 4.6 mph - N/A   Overcast
7:53 AM 50.0 °F 45.0 °F 83% 29.89 in 10.0 mi SW 4.6 mph - N/A   Overcast
8:25 AM 50.0 °F 44.6 °F 82% 29.89 in 10.0 mi SW 4.6 mph - N/A   Overcast
8:53 AM 51.1 °F 45.0 °F 80% 29.90 in 10.0 mi WSW 5.8 mph - 0.01 in   Mostly Cloudy
9:00 AM 51.8 °F 44.6 °F 76% 29.89 in 10.0 mi West 3.5 mph - N/A   Mostly Cloudy
9:37 AM 51.8 °F 44.6 °F 76% 29.88 in 10.0 mi West 4.6 mph - N/A   Mostly Cloudy
9:53 AM 51.1 °F 45.0 °F 80% 29.90 in 10.0 mi West 6.9 mph - N/A   Overcast
10:10 AM 51.8 °F 46.4 °F 82% 29.89 in 10.0 mi West 3.5 mph - N/A   Overcast
10:53 AM 52.0 °F 46.0 °F 80% 29.88 in 10.0 mi West 3.5 mph - N/A   Overcast
11:53 AM 53.1 °F 46.9 °F 80% 29.85 in 10.0 mi Calm Calm - 0.00 in   Mostly Cloudy
12:53 PM 54.0 °F 48.0 °F 80% 29.84 in 10.0 mi SW 5.8 mph - 0.00 in   Overcast
1:19 PM 53.6 °F 48.2 °F 82% 29.83 in 9.0 mi SSW 6.9 mph - N/A   Mostly Cloudy
1:39 PM 53.6 °F 48.2 °F 82% 29.81 in 7.0 mi SSW 4.6 mph - 0.00 in Rain Light Rain
1:53 PM 53.1 °F 48.9 °F 86% 29.82 in 6.0 mi SSW 6.9 mph - 0.00 in Rain Light Rain
2:20 PM 53.6 °F 48.2 °F 82% 29.81 in 4.0 mi SW 6.9 mph - 0.00 in Rain Light Rain
2:31 PM 51.8 °F 48.2 °F 88% 29.80 in 3.0 mi SSW 6.9 mph - 0.00 in Rain Light Rain
2:53 PM 52.0 °F 50.0 °F 93% 29.79 in 5.0 mi WSW 5.8 mph - 0.00 in Rain Light Rain
3:02 PM 51.8 °F 48.2 °F 88% 29.78 in 4.0 mi WSW 8.1 mph - 0.00 in Rain Light Rain
3:12 PM 51.8 °F 48.2 °F 88% 29.79 in 6.0 mi WSW 9.2 mph - 0.00 in Rain Light Rain
3:53 PM 51.1 °F 48.0 °F 89% 29.79 in 5.0 mi WSW 9.2 mph - 0.00 in Rain Light Rain
4:36 PM 51.8 °F 46.4 °F 82% 29.77 in 7.0 mi WSW 11.5 mph 19.6 mph 0.00 in Rain Light Rain
4:51 PM 51.8 °F 46.4 °F 82% 29.77 in 10.0 mi WSW 10.4 mph - 0.00 in Rain Light Rain
4:53 PM 51.1 °F 46.9 °F 86% 29.78 in 10.0 mi WSW 9.2 mph - 0.00 in Rain Light Rain
5:33 PM 51.8 °F 46.4 °F 82% 29.77 in 10.0 mi WSW 11.5 mph - N/A   Overcast
5:50 PM 51.8 °F 46.4 °F 82% 29.77 in 10.0 mi WSW 10.4 mph - N/A   Overcast
5:53 PM 51.1 °F 46.0 °F 83% 29.78 in 10.0 mi WSW 10.4 mph - N/A   Overcast
6:53 PM 51.1 °F 46.0 °F 83% 29.78 in 10.0 mi WSW 8.1 mph - N/A   Overcast
7:16 PM 50.0 °F 46.4 °F 87% 29.77 in 8.0 mi WSW 9.2 mph - 0.00 in Rain Light Rain
7:39 PM 50.0 °F 46.4 °F 87% 29.78 in 10.0 mi WSW 9.2 mph - 0.00 in   Overcast
7:53 PM 50.0 °F 46.9 °F 89% 29.79 in 10.0 mi SW 10.4 mph - 0.00 in   Overcast
8:39 PM 50.0 °F 44.6 °F 82% 29.79 in 10.0 mi WSW 12.7 mph 20.7 mph N/A   Overcast
8:50 PM 51.8 °F 44.6 °F 76% 29.78 in 10.0 mi SW 15.0 mph 21.9 mph N/A   Overcast
8:53 PM 50.0 °F 45.0 °F 83% 29.79 in 10.0 mi SW 11.5 mph 21.9 mph N/A   Overcast
9:17 PM 50.0 °F 46.4 °F 87% 29.79 in 9.0 mi WSW 10.4 mph 24.2 mph N/A   Overcast
9:53 PM 50.0 °F 46.0 °F 86% 29.81 in 10.0 mi WSW 10.4 mph 24.2 mph 0.00 in   Overcast
10:03 PM 50.0 °F 46.4 °F 87% 29.80 in 7.0 mi West 10.4 mph 18.4 mph 0.00 in Rain Light Rain
10:13 PM 50.0 °F 46.4 °F 87% 29.81 in 8.0 mi West 12.7 mph 18.4 mph 0.00 in   Overcast
10:22 PM 50.0 °F 46.4 °F 87% 29.81 in 10.0 mi West 11.5 mph - 0.00 in   Overcast
10:53 PM 50.0 °F 46.0 °F 86% 29.83 in 10.0 mi West 10.4 mph - 0.00 in   Mostly Cloudy
11:53 PM 48.9 °F 44.1 °F 83% 29.85 in 10.0 mi West 8.1 mph - 0.01 in   Mostly Cloudy